Location: Newark
(22.3060°N, 114.2134°E)
Time: 07:21:00
(UTC+00:00)

Explorer 11/Cluster Stage 4 - Pass Details

Date: 05 August 2021
Orbit: 467 x 1256 km, 28.8° (Epoch: 24 September)

Event Time Altitude Azimuth Distance (km) Brightness Sun altitude
Rises 02:16:58 0° 284° (WNW) 4,025 9.9 58.5°
Reaches altitude 10° 02:19:48 10° 288° (WNW) 3,131 9.5 59.1°
Maximum altitude 02:27:41 56° 5° (N) 1,462 8.8 60.9°
Drops below altitude 10° 02:35:40 10° 82° (E) 3,172 10.3 62.8°
Sets 02:38:33 0° 87° (E) 4,081 10.6 63.4°
